User: anonymous   Login
Location: Muenchen
(48.1800°N, 11.5800°E)
Time: 02:33:27
(UTC+02:00)
Language:

Tiros 1 - Orbit

View from above orbital plane
View from above orbital plane
View from above satellite
View from above satellite

Ground track
Ground track

The orbit data is extracted from the following two-line orbital elements,

1 00029U 60002B   15116.66786032  .00000578  00000-0  11831-3 0  9998
2 00029 048.3788 172.5688 0023687 117.8564 242.4752 14.73767051941467
Epoch (UTC): 26 April 2015 16:01:43
Eccentricity: 0.0023687
inclination: 48.3788°
perigee height: 632 km
apogee height: 666 km
right ascension of ascending node: 172.5688°
argument of perigee: 117.8564°
revolutions per day: 14.73767051
mean anomaly at epoch: 242.4752°
orbit number at epoch: 94146

The dashed part of the orbit path shows where the satellite is in the earth's shadow,  

DLR